| time (UTC) | temp F | wind direction | speed MPH | gust MPH | rain 1hr in | rain 24hr in | rain mn in | humidity % | barometer mb |
| 20260507012506 | 60 | 360 | 10.0 | 14.0 | 0.00 | 0.01 | 0.01 | 78 | 1016.8 |
| 20260507012009 | 61 | 337 | 9.0 | 12.0 | 0.00 | 0.01 | 0.01 | 77 | 1016.8 |
| 20260507011506 | 61 | 360 | 10.0 | 15.0 | 0.00 | 0.01 | 0.01 | 77 | 1016.8 |
| 20260507011009 | 61 | 360 | 8.0 | 10.0 | 0.00 | 0.01 | 0.01 | 77 | 1016.8 |
| 20260507010507 | 61 | 337 | 8.0 | 10.0 | 0.00 | 0.01 | 0.01 | 76 | 1016.5 |
| 20260507010005 | 61 | 22 | 9.0 | 12.0 | 0.00 | 0.01 | 0.01 | 75 | 1016.5 |
| 20260507005508 | 61 | 360 | 11.0 | 14.0 | 0.00 | 0.01 | 0.01 | 75 | 1016.5 |
| 20260507005005 | 62 | 22 | 12.0 | 15.0 | 0.00 | 0.01 | 0.01 | 75 | 1016.5 |
| 20260507004508 | 62 | 22 | 11.0 | 15.0 | 0.00 | 0.01 | 0.01 | 75 | 1016.5 |
| 20260507004031 | 62 | 360 | 6.0 | 10.0 | 0.00 | 0.01 | 0.01 | 76 | 1016.5 |
| 20260507003508 | 62 | 22 | 8.0 | 10.0 | 0.00 | 0.01 | 0.01 | 75 | 1016.1 |
| 20260507003005 | 62 | 360 | 10.0 | 13.0 | 0.00 | 0.01 | 0.01 | 75 | 1016.1 |
| 20260507002508 | 62 | 337 | 9.0 | 14.0 | 0.00 | 0.01 | 0.01 | 75 | 1016.1 |
| 20260507002004 | 62 | 22 | 9.0 | 13.0 | 0.00 | 0.01 | 0.01 | 75 | 1016.1 |
| 20260507001508 | 62 | 22 | 11.0 | 15.0 | 0.00 | 0.01 | 0.01 | 74 | 1015.4 |
| 20260507001005 | 62 | 360 | 8.0 | 14.0 | 0.00 | 0.01 | 0.01 | 75 | 1015.4 |
| 20260507000510 | 63 | 337 | 9.0 | 14.0 | 0.00 | 0.01 | 0.01 | 74 | 1015.4 |
| 20260507000005 | 63 | 360 | 5.0 | 7.0 | 0.00 | 0.01 | 0.01 | 75 | 1015.4 |
| 20260506235506 | 63 | 22 | 10.0 | 14.0 | 0.00 | 0.01 | 0.01 | 74 | 1015.4 |
| 20260506235003 | 63 | 360 | 8.0 | 12.0 | 0.00 | 0.01 | 0.01 | 74 | 1015.4 |
| 20260506234506 | 63 | 22 | 5.0 | 9.0 | 0.00 | 0.01 | 0.01 | 74 | 1015.1 |
| 20260506234009 | 63 | 22 | 9.0 | 12.0 | 0.00 | 0.01 | 0.01 | 73 | 1015.1 |
| 20260506233506 | 63 | 22 | 8.0 | 12.0 | 0.00 | 0.01 | 0.01 | 73 | 1015.1 |
| 20260506233009 | 63 | 22 | 10.0 | 13.0 | 0.00 | 0.01 | 0.01 | 72 | 1015.1 |
| 20260506232506 | 63 | 22 | 8.0 | 11.0 | 0.00 | 0.01 | 0.01 | 72 | 1015.1 |
| 20260506232008 | 63 | 22 | 10.0 | 15.0 | 0.00 | 0.01 | 0.01 | 71 | 1015.1 |
| 20260506231507 | 64 | 22 | 10.0 | 15.0 | 0.00 | 0.01 | 0.01 | 72 | 1014.8 |
| 20260506231004 | 64 | 22 | 10.0 | 15.0 | 0.00 | 0.01 | 0.01 | 71 | 1014.8 |
| 20260506230507 | 64 | 22 | 13.0 | 17.0 | 0.00 | 0.01 | 0.01 | 70 | 1006.3 |
| 20260506230004 | 64 | 22 | 11.0 | 14.0 | 0.00 | 0.01 | 0.01 | 70 | 1006.3 |
| 20260506225507 | 64 | 360 | 10.0 | 14.0 | 0.00 | 0.01 | 0.01 | 70 | 1014.4 |
| 20260506225004 | 64 | 22 | 10.0 | 13.0 | 0.00 | 0.01 | 0.01 | 69 | 1014.4 |
| 20260506224508 | 65 | 22 | 10.0 | 13.0 | 0.00 | 0.01 | 0.01 | 69 | 1013.8 |
| 20260506224004 | 65 | 45 | 10.0 | 12.0 | 0.00 | 0.01 | 0.01 | 68 | 1013.8 |
| 20260506223509 | 65 | 337 | 7.0 | 10.0 | 0.00 | 0.01 | 0.01 | 68 | 1013.8 |
| 20260506223004 | 66 | 22 | 11.0 | 15.0 | 0.00 | 0.01 | 0.01 | 67 | 1013.8 |
| 20260506222508 | 65 | 360 | 8.0 | 11.0 | 0.00 | 0.01 | 0.01 | 68 | 1013.8 |
| 20260506221505 | 65 | 360 | 9.0 | 13.0 | 0.00 | 0.01 | 0.01 | 67 | 1013.8 |
| 20260506221003 | 65 | 337 | 7.0 | 10.0 | 0.00 | 0.01 | 0.01 | 69 | 1013.8 |
| 20260506220506 | 65 | 22 | 11.0 | 14.0 | 0.00 | 0.01 | 0.01 | 67 | 1013.8 |
| 20260506220003 | 65 | 22 | 13.0 | 18.0 | 0.00 | 0.01 | 0.01 | 67 | 1013.8 |
| 20260506215506 | 65 | 337 | 3.0 | 8.0 | 0.00 | 0.01 | 0.01 | 66 | 1013.4 |
| 20260506215003 | 66 | 337 | 7.0 | 9.0 | 0.00 | 0.01 | 0.01 | 66 | 1013.4 |
| 20260506214506 | 66 | 67 | 11.0 | 18.0 | 0.00 | 0.01 | 0.01 | 66 | 1013.4 |
| 20260506214003 | 66 | 360 | 9.0 | 10.0 | 0.00 | 0.01 | 0.01 | 67 | 1013.4 |
| 20260506213532 | 66 | 360 | 4.0 | 9.0 | 0.00 | 0.01 | 0.01 | 69 | 1013.8 |
| 20260506213006 | 65 | 22 | 10.0 | 13.0 | 0.00 | 0.01 | 0.01 | 67 | 1013.8 |
| 20260506212502 | 66 | 45 | 8.0 | 11.0 | 0.00 | 0.01 | 0.01 | 69 | 1014.1 |
| 20260506212006 | 65 | 22 | 9.0 | 11.0 | 0.00 | 0.01 | 0.01 | 69 | 1014.1 |
| 20260506211508 | 65 | 22 | 7.0 | 9.0 | 0.00 | 0.01 | 0.01 | 70 | 1013.8 |
| 20260506211005 | 65 | 360 | 7.0 | 10.0 | 0.00 | 0.01 | 0.01 | 70 | 1013.8 |
| 20260506210510 | 64 | 22 | 9.0 | 11.0 | 0.00 | 0.01 | 0.01 | 68 | 1014.1 |
| 20260506210005 | 65 | 22 | 8.0 | 11.0 | 0.00 | 0.01 | 0.01 | 70 | 1014.1 |
| 20260506205508 | 64 | 45 | 10.0 | 13.0 | 0.00 | 0.01 | 0.01 | 69 | 1014.1 |
| 20260506205005 | 64 | 67 | 8.0 | 10.0 | 0.00 | 0.01 | 0.01 | 70 | 1014.1 |
| 20260506204508 | 64 | 22 | 5.0 | 7.0 | 0.00 | 0.01 | 0.01 | 69 | 1014.1 |
| 20260506204005 | 64 | 360 | 9.0 | 11.0 | 0.00 | 0.01 | 0.01 | 69 | 1014.1 |
| 20260506203508 | 64 | 22 | 9.0 | 12.0 | 0.00 | 0.01 | 0.01 | 71 | 1014.4 |
| 20260506203005 | 64 | 22 | 6.0 | 8.0 | 0.00 | 0.01 | 0.01 | 70 | 1014.4 |
| 20260506202508 | 64 | 45 | 10.0 | 14.0 | 0.00 | 0.01 | 0.01 | 70 | 1014.8 |
| 20260506202005 | 63 | 67 | 8.0 | 11.0 | 0.00 | 0.01 | 0.01 | 70 | 1014.8 |
| 20260506201507 | 63 | 360 | 7.0 | 9.0 | 0.00 | 0.01 | 0.01 | 70 | 1014.8 |
| 20260506201004 | 63 | 45 | 10.0 | 11.0 | 0.00 | 0.01 | 0.01 | 69 | 1014.8 |
| 20260506200508 | 64 | 90 | 8.0 | 10.0 | 0.00 | 0.01 | 0.01 | 68 | 1014.8 |
| 20260506200005 | 64 | 112 | 5.0 | 7.0 | 0.00 | 0.01 | 0.01 | 67 | 1014.8 |
| 20260506195508 | 64 | 67 | 6.0 | 8.0 | 0.00 | 0.01 | 0.01 | 69 | 1014.8 |
| 20260506195007 | 64 | 67 | 10.0 | 14.0 | 0.00 | 0.01 | 0.01 | 67 | 1014.8 |
| 20260506194504 | 64 | 22 | 5.0 | 7.0 | 0.00 | 0.01 | 0.01 | 69 | 1015.1 |
| 20260506194008 | 63 | 360 | 8.0 | 10.0 | 0.00 | 0.01 | 0.01 | 68 | 1015.1 |
| 20260506193504 | 63 | 22 | 7.0 | 9.0 | 0.00 | 0.01 | 0.01 | 69 | 1015.1 |
| 20260506193027 | 63 | 360 | 8.0 | 10.0 | 0.00 | 0.01 | 0.01 | 70 | 1015.1 |
| 20260506192505 | 63 | 67 | 8.0 | 11.0 | 0.00 | 0.01 | 0.01 | 69 | 1015.1 |
| 20260506192008 | 63 | 45 | 5.0 | 7.0 | 0.00 | 0.01 | 0.01 | 72 | 1015.1 |
| 20260506191505 | 63 | 22 | 7.0 | 10.0 | 0.00 | 0.01 | 0.01 | 71 | 1015.1 |
| 20260506191008 | 62 | 45 | 8.0 | 10.0 | 0.00 | 0.01 | 0.01 | 71 | 1015.1 |
| 20260506190504 | 61 | 22 | 7.0 | 10.0 | 0.00 | 0.01 | 0.01 | 72 | 1015.1 |
| 20260506190007 | 61 | 337 | 11.0 | 15.0 | 0.00 | 0.01 | 0.01 | 73 | 1015.1 |
| 20260506185506 | 61 | 22 | 10.0 | 14.0 | 0.00 | 0.01 | 0.01 | 74 | 1015.1 |
| 20260506185003 | 61 | 360 | 8.0 | 10.0 | 0.00 | 0.01 | 0.01 | 76 | 1015.1 |
| 20260506184506 | 61 | 360 | 10.0 | 15.0 | 0.00 | 0.01 | 0.01 | 77 | 1015.4 |
| 20260506184006 | 60 | 22 | 11.0 | 16.0 | 0.00 | 0.01 | 0.01 | 75 | 1015.4 |
| 20260506183504 | 60 | 22 | 8.0 | 11.0 | 0.00 | 0.01 | 0.01 | 80 | 1015.8 |
| 20260506183007 | 59 | 22 | 7.0 | 11.0 | 0.00 | 0.01 | 0.01 | 80 | 1015.8 |
| 20260506182504 | 58 | 22 | 10.0 | 12.0 | 0.00 | 0.01 | 0.01 | 78 | 1015.8 |
| 20260506182007 | 59 | 22 | 11.0 | 15.0 | 0.00 | 0.01 | 0.01 | 80 | 1015.8 |
| 20260506181509 | 58 | 67 | 8.0 | 14.0 | 0.00 | 0.01 | 0.01 | 80 | 1015.8 |
| 20260506181006 | 58 | 22 | 10.0 | 14.0 | 0.00 | 0.01 | 0.01 | 80 | 1015.8 |
| 20260506180507 | 58 | 22 | 12.0 | 18.0 | 0.00 | 0.01 | 0.01 | 79 | 1016.1 |
| 20260506180005 | 58 | 337 | 7.0 | 11.0 | 0.00 | 0.01 | 0.01 | 83 | 1016.1 |
| 20260506175507 | 58 | 360 | 12.0 | 17.0 | 0.00 | 0.01 | 0.01 | 79 | 1016.5 |
| 20260506175004 | 58 | 360 | 10.0 | 13.0 | 0.00 | 0.01 | 0.01 | 81 | 1016.5 |
| 20260506174506 | 57 | 22 | 13.0 | 15.0 | 0.00 | 0.01 | 0.01 | 81 | 1016.5 |
| 20260506173503 | 56 | 360 | 13.0 | 18.0 | 0.00 | 0.01 | 0.01 | 83 | 1017.1 |
| 20260506173005 | 56 | 22 | 12.0 | 19.0 | 0.00 | 0.01 | 0.01 | 86 | 1017.1 |
| 20260506172528 | 55 | 45 | 12.0 | 16.0 | 0.00 | 0.01 | 0.01 | 86 | 1017.8 |
| 20260506172004 | 55 | 22 | 12.0 | 17.0 | 0.00 | 0.01 | 0.01 | 86 | 1017.8 |
| 20260506171508 | 55 | 22 | 15.0 | 20.0 | 0.00 | 0.01 | 0.01 | 86 | 1017.8 |
| 20260506171004 | 55 | 22 | 9.0 | 10.0 | 0.00 | 0.01 | 0.01 | 88 | 1017.8 |
| 20260506170507 | 54 | 45 | 9.0 | 14.0 | 0.00 | 0.01 | 0.01 | 88 | 1017.8 |
| 20260506170004 | 54 | 22 | 10.0 | 13.0 | 0.00 | 0.01 | 0.01 | 89 | 1017.8 |
| 20260506165508 | 54 | 22 | 9.0 | 12.0 | 0.00 | 0.01 | 0.01 | 89 | 1017.8 |
| 20260506165005 | 54 | 22 | 12.0 | 18.0 | 0.00 | 0.01 | 0.01 | 89 | 1017.8 |
| 20260506164507 | 54 | 360 | 13.0 | 18.0 | 0.00 | 0.01 | 0.01 | 90 | 1017.8 |
| 20260506164005 | 54 | 22 | 10.0 | 13.0 | 0.00 | 0.01 | 0.01 | 90 | 1017.8 |
| 20260506163507 | 53 | 360 | 9.0 | 12.0 | 0.00 | 0.01 | 0.01 | 90 | 1017.5 |
| 20260506163005 | 53 | 22 | 11.0 | 14.0 | 0.00 | 0.01 | 0.01 | 90 | 1017.5 |
| 20260506162508 | 53 | 360 | 13.0 | 18.0 | 0.00 | 0.01 | 0.01 | 90 | 1017.8 |
| 20260506162005 | 53 | 22 | 11.0 | 15.0 | 0.00 | 0.01 | 0.01 | 92 | 1017.8 |
| 20260506161509 | 53 | 337 | 8.0 | 13.0 | 0.00 | 0.01 | 0.01 | 92 | 1018.5 |
| 20260506161006 | 53 | 22 | 8.0 | 11.0 | 0.00 | 0.01 | 0.01 | 93 | 1018.5 |
| 20260506160510 | 53 | 22 | 10.0 | 13.0 | 0.00 | 0.01 | 0.01 | 92 | 1017.8 |
| 20260506160005 | 53 | 337 | 9.0 | 12.0 | 0.00 | 0.01 | 0.01 | 93 | 1017.8 |
| 20260506155508 | 53 | 337 | 10.0 | 16.0 | 0.00 | 0.01 | 0.01 | 95 | 1017.5 |
| 20260506155004 | 53 | 22 | 11.0 | 17.0 | 0.00 | 0.01 | 0.01 | 96 | 1017.5 |
| 20260506154507 | 53 | 360 | 11.0 | 18.0 | 0.00 | 0.01 | 0.01 | 98 | 1018.5 |
| 20260506154005 | 53 | 337 | 7.0 | 10.0 | 0.00 | 0.01 | 0.01 | 100 | 1018.5 |
| 20260506153508 | 52 | 360 | 6.0 | 8.0 | 0.00 | 0.01 | 0.01 | 100 | 1019.5 |
| 20260506153005 | 52 | 337 | 7.0 | 11.0 | 0.00 | 0.01 | 0.01 | 100 | 1019.5 |
| 20260506152508 | 52 | 22 | 7.0 | 10.0 | 0.00 | 0.01 | 0.01 | 100 | 1020.5 |
| 20260506152012 | 52 | 337 | 4.0 | 5.0 | 0.00 | 0.00 | 0.00 | 98 | 1020.5 |
| 20260506151506 | 52 | 337 | 6.0 | 7.0 | 0.00 | 0.00 | 0.00 | 98 | 1019.9 |
| 20260506151011 | 52 | 337 | 4.0 | 5.0 | 0.00 | 0.00 | 0.00 | 98 | 1019.9 |
| 20260506150506 | 52 | 22 | 6.0 | 8.0 | 0.00 | 0.00 | 0.00 | 97 | 1019.2 |
| 20260506150009 | 52 | 337 | 7.0 | 10.0 | 0.00 | 0.00 | 0.00 | 98 | 1019.2 |
| 20260506145505 | 52 | 360 | 5.0 | 9.0 | 0.00 | 0.00 | 0.00 | 98 | 1017.8 |
| 20260506145009 | 52 | 22 | 10.0 | 13.0 | 0.00 | 0.00 | 0.00 | 99 | 1017.8 |
| 20260506144504 | 52 | 22 | 9.0 | 13.0 | 0.00 | 0.00 | 0.00 | 100 | 1018.5 |
| 20260506144008 | 52 | 22 | 9.0 | 13.0 | 0.00 | 0.00 | 0.00 | 100 | 1018.5 |
| 20260506143508 | 52 | 360 | 7.0 | 10.0 | 0.00 | 0.00 | 0.00 | 100 | 1018.5 |
| 20260506143005 | 51 | 337 | 8.0 | 11.0 | 0.00 | 0.00 | 0.00 | 100 | 1018.5 |
| 20260506142504 | 51 | 22 | 8.0 | 13.0 | 0.00 | 0.00 | 0.00 | 100 | 1018.5 |
| 20260506142039 | 51 | 337 | 7.0 | 11.0 | 0.00 | 0.00 | 0.00 | 100 | 1018.5 |
| 20260506141507 | 51 | 337 | 8.0 | 10.0 | 0.00 | 0.00 | 0.00 | 100 | 1018.8 |
| 20260506141006 | 52 | 337 | 8.0 | 10.0 | 0.00 | 0.00 | 0.00 | 98 | 1018.8 |
| 20260506140504 | 52 | 360 | 7.0 | 10.0 | 0.00 | 0.00 | 0.00 | 97 | 1018.5 |
| 20260506140006 | 52 | 360 | 9.0 | 12.0 | 0.00 | 0.00 | 0.00 | 97 | 1018.5 |
| 20260506135503 | 52 | 337 | 8.0 | 11.0 | 0.00 | 0.00 | 0.00 | 97 | 1017.8 |
| 20260506135006 | 52 | 360 | 6.0 | 9.0 | 0.00 | 0.00 | 0.00 | 97 | 1017.8 |
| 20260506134503 | 52 | 360 | 6.0 | 8.0 | 0.00 | 0.00 | 0.00 | 98 | 1017.5 |
| 20260506134006 | 52 | 22 | 10.0 | 15.0 | 0.00 | 0.00 | 0.00 | 98 | 1017.5 |
| 20260506133503 | 52 | 337 | 11.0 | 15.0 | 0.00 | 0.00 | 0.00 | 98 | 1017.5 |
| 20260506133006 | 52 | 22 | 10.0 | 14.0 | 0.00 | 0.00 | 0.00 | 99 | 1017.5 |
| 20260506132509 | 52 | 360 | 8.0 | 11.0 | 0.00 | 0.00 | 0.00 | 100 | 1017.5 |
| 20260506132006 | 52 | 337 | 8.0 | 11.0 | 0.00 | 0.00 | 0.00 | 100 | 1017.5 |
| 20260506131508 | 51 | 337 | 7.0 | 11.0 | 0.00 | 0.00 | 0.00 | 100 | 1017.1 |
| 20260506131008 | 51 | 360 | 8.0 | 12.0 | 0.00 | 0.00 | 0.00 | 100 | 1017.1 |
| 20260506130504 | 51 | 360 | 10.0 | 14.0 | 0.00 | 0.00 | 0.00 | 100 | 1017.1 |
| 20260506130007 | 51 | 22 | 12.0 | 15.0 | 0.00 | 0.00 | 0.00 | 100 | 1017.1 |
| 20260506125503 | 51 | 337 | 10.0 | 14.0 | 0.00 | 0.00 | 0.00 | 100 | 1017.5 |
| 20260506125007 | 51 | 360 | 9.0 | 13.0 | 0.00 | 0.00 | 0.00 | 100 | 1017.5 |
| 20260506124504 | 51 | 337 | 9.0 | 14.0 | 0.00 | 0.00 | 0.00 | 100 | 1017.5 |
| 20260506124007 | 51 | 337 | 9.0 | 12.0 | 0.00 | 0.00 | 0.00 | 100 | 1017.5 |
| 20260506123504 | 51 | 337 | 8.0 | 10.0 | 0.00 | 0.00 | 0.00 | 100 | 1017.1 |
| 20260506123007 | 50 | 337 | 10.0 | 14.0 | 0.00 | 0.00 | 0.00 | 100 | 1017.1 |
| 20260506122507 | 51 | 337 | 7.0 | 10.0 | 0.00 | 0.00 | 0.00 | 100 | 1017.1 |
| 20260506122004 | 50 | 337 | 11.0 | 14.0 | 0.00 | 0.00 | 0.00 | 100 | 1017.1 |
| 20260506121527 | 50 | 337 | 10.0 | 12.0 | 0.00 | 0.00 | 0.00 | 100 | 1017.1 |
| 20260506121004 | 50 | 337 | 11.0 | 15.0 | 0.00 | 0.00 | 0.00 | 100 | 1017.1 |
| 20260506120506 | 50 | 337 | 11.0 | 15.0 | 0.00 | 0.00 | 0.00 | 100 | 1017.1 |
| 20260506120004 | 51 | 337 | 10.0 | 13.0 | 0.00 | 0.00 | 0.00 | 100 | 1017.1 |
| 20260506115506 | 51 | 337 | 11.0 | 14.0 | 0.00 | 0.00 | 0.00 | 100 | 1017.1 |
| 20260506115004 | 51 | 315 | 10.0 | 14.0 | 0.00 | 0.00 | 0.00 | 100 | 1017.1 |
| 20260506114506 | 51 | 360 | 6.0 | 10.0 | 0.00 | 0.00 | 0.00 | 100 | 1016.8 |
| 20260506114003 | 51 | 337 | 10.0 | 12.0 | 0.00 | 0.00 | 0.00 | 100 | 1016.8 |
| 20260506113506 | 51 | 337 | 10.0 | 12.0 | 0.00 | 0.00 | 0.00 | 100 | 1016.5 |
| 20260506113003 | 51 | 337 | 10.0 | 14.0 | 0.00 | 0.00 | 0.00 | 100 | 1016.5 |
| 20260506112507 | 51 | 337 | 13.0 | 19.0 | 0.00 | 0.00 | 0.00 | 100 | 1015.8 |
| 20260506112004 | 51 | 315 | 9.0 | 13.0 | 0.00 | 0.00 | 0.00 | 100 | 1015.8 |
| 20260506111507 | 51 | 337 | 12.0 | 19.0 | 0.00 | 0.00 | 0.00 | 100 | 1015.8 |
| 20260506111004 | 52 | 360 | 9.0 | 15.0 | 0.00 | 0.00 | 0.00 | 99 | 1015.8 |
| 20260506110506 | 52 | 337 | 13.0 | 19.0 | 0.00 | 0.00 | 0.00 | 97 | 1015.8 |
| 20260506110004 | 52 | 337 | 11.0 | 16.0 | 0.00 | 0.00 | 0.00 | 94 | 1015.8 |
| 20260506105506 | 53 | 360 | 11.0 | 14.0 | 0.00 | 0.00 | 0.00 | 92 | 1015.1 |
| 20260506105003 | 53 | 337 | 12.0 | 19.0 | 0.00 | 0.00 | 0.00 | 92 | 1015.1 |
| 20260506104507 | 53 | 337 | 11.0 | 16.0 | 0.00 | 0.00 | 0.00 | 90 | 1015.1 |
| 20260506104004 | 53 | 22 | 12.0 | 17.0 | 0.00 | 0.00 | 0.00 | 89 | 1015.1 |
| 20260506103507 | 53 | 337 | 11.0 | 14.0 | 0.00 | 0.00 | 0.00 | 88 | 1015.1 |
| 20260506103004 | 53 | 337 | 13.0 | 19.0 | 0.00 | 0.00 | 0.00 | 87 | 1015.1 |
| 20260506102506 | 53 | 337 | 11.0 | 15.0 | 0.00 | 0.00 | 0.00 | 87 | 1015.1 |
| 20260506102009 | 54 | 337 | 10.0 | 13.0 | 0.00 | 0.00 | 0.00 | 88 | 1015.1 |
| 20260506101506 | 54 | 337 | 11.0 | 16.0 | 0.00 | 0.00 | 0.00 | 87 | 1014.4 |
| 20260506101041 | 54 | 337 | 10.0 | 14.0 | 0.00 | 0.00 | 0.00 | 87 | 1014.4 |
| 20260506100504 | 54 | 360 | 8.0 | 12.0 | 0.00 | 0.00 | 0.00 | 87 | 1014.4 |
| 20260506100008 | 54 | 360 | 9.0 | 17.0 | 0.00 | 0.00 | 0.00 | 86 | 1014.4 |
| 20260506095505 | 54 | 337 | 9.0 | 13.0 | 0.00 | 0.00 | 0.00 | 85 | 1014.4 |
| 20260506095008 | 54 | 360 | 10.0 | 13.0 | 0.00 | 0.00 | 0.00 | 86 | 1014.4 |
| 20260506094504 | 54 | 360 | 10.0 | 14.0 | 0.00 | 0.00 | 0.00 | 86 | 1014.4 |
| 20260506094007 | 54 | 337 | 8.0 | 14.0 | 0.00 | 0.00 | 0.00 | 86 | 1014.4 |
| 20260506093506 | 54 | 315 | 8.0 | 11.0 | 0.00 | 0.00 | 0.00 | 86 | 1014.1 |
| 20260506093007 | 54 | 337 | 10.0 | 14.0 | 0.00 | 0.00 | 0.00 | 86 | 1014.1 |
| 20260506092505 | 55 | 337 | 8.0 | 11.0 | 0.00 | 0.00 | 0.00 | 87 | 1013.8 |
| 20260506092007 | 55 | 360 | 9.0 | 13.0 | 0.00 | 0.00 | 0.00 | 87 | 1013.8 |
| 20260506091505 | 55 | 337 | 7.0 | 9.0 | 0.00 | 0.00 | 0.00 | 88 | 1013.8 |
| 20260506091007 | 55 | 337 | 8.0 | 13.0 | 0.00 | 0.00 | 0.00 | 87 | 1013.8 |
| 20260506090504 | 55 | 337 | 6.0 | 10.0 | 0.00 | 0.00 | 0.00 | 87 | 1013.8 |
| 20260506090005 | 55 | 337 | 9.0 | 13.0 | 0.00 | 0.00 | 0.00 | 86 | 1013.8 |
| 20260506085508 | 55 | 337 | 9.0 | 14.0 | 0.00 | 0.00 | 0.00 | 85 | 1013.4 |
| 20260506085005 | 55 | 22 | 9.0 | 12.0 | 0.00 | 0.00 | 0.00 | 85 | 1013.4 |
| 20260506084507 | 55 | 360 | 9.0 | 13.0 | 0.00 | 0.00 | 0.00 | 85 | 1013.4 |
| 20260506084004 | 55 | 337 | 7.0 | 10.0 | 0.00 | 0.00 | 0.00 | 86 | 1013.4 |
| 20260506083507 | 55 | 337 | 9.0 | 12.0 | 0.00 | 0.00 | 0.00 | 86 | 1013.4 |
| 20260506083005 | 55 | 337 | 7.0 | 13.0 | 0.00 | 0.00 | 0.00 | 87 | 1013.4 |
| 20260506082507 | 55 | 337 | 9.0 | 11.0 | 0.00 | 0.00 | 0.00 | 87 | 1013.4 |
| 20260506082004 | 55 | 360 | 9.0 | 12.0 | 0.00 | 0.00 | 0.00 | 87 | 1013.4 |
| 20260506081508 | 55 | 337 | 12.0 | 15.0 | 0.00 | 0.00 | 0.00 | 86 | 1013.4 |
| 20260506081005 | 55 | 360 | 7.0 | 10.0 | 0.00 | 0.00 | 0.00 | 86 | 1013.4 |
| 20260506080534 | 55 | 337 | 6.0 | 9.0 | 0.00 | 0.00 | 0.00 | 87 | 1013.4 |
| 20260506073503 | 56 | 337 | 7.0 | 9.0 | 0.00 | 0.00 | 0.00 | 89 | 1012.7 |
| 20260506073006 | 56 | 337 | 9.0 | 12.0 | 0.00 | 0.00 | 0.00 | 89 | 1012.7 |
| 20260506072502 | 56 | 22 | 7.0 | 10.0 | 0.00 | 0.00 | 0.00 | 89 | 1012.4 |
| 20260506072005 | 56 | 22 | 9.0 | 11.0 | 0.00 | 0.00 | 0.00 | 90 | 1012.4 |
| 20260506071502 | 56 | 337 | 7.0 | 10.0 | 0.00 | 0.00 | 0.00 | 90 | 1012.4 |
| 20260506071006 | 56 | 22 | 6.0 | 10.0 | 0.00 | 0.00 | 0.00 | 90 | 1012.4 |
| 20260506070503 | 56 | 22 | 10.0 | 13.0 | 0.00 | 0.00 | 0.00 | 90 | 1012.7 |
| 20260506062505 | 56 | 337 | 6.0 | 9.0 | 0.00 | 0.00 | 0.00 | 89 | 1013.1 |
| 20260506062002 | 56 | 337 | 9.0 | 16.0 | 0.00 | 0.00 | 0.00 | 89 | 1013.1 |
| 20260506061505 | 56 | 45 | 8.0 | 10.0 | 0.00 | 0.00 | 0.00 | 89 | 1012.4 |
| 20260506061003 | 57 | 337 | 9.0 | 12.0 | 0.00 | 0.00 | 0.00 | 89 | 1012.4 |
| 20260506060514 | 57 | 360 | 8.0 | 10.0 | 0.00 | 0.00 | 0.00 | 90 | 1012.4 |
| 20260506051005 | 58 | 360 | 11.0 | 14.0 | 0.00 | 0.00 | 0.00 | 93 | 1012.7 |
| 20260506050503 | 58 | 360 | 9.0 | 14.0 | 0.00 | 0.00 | 0.00 | 94 | 1012.4 |
| 20260506045006 | 58 | 22 | 11.0 | 17.0 | 0.00 | 0.00 | 0.00 | 94 | 1012.4 |
| 20260506044503 | 58 | 337 | 10.0 | 12.0 | 0.00 | 0.00 | 0.00 | 94 | 1012.4 |
| 20260506044006 | 58 | 337 | 10.0 | 14.0 | 0.00 | 0.00 | 0.00 | 94 | 1012.4 |
| 20260506043504 | 58 | 337 | 11.0 | 15.0 | 0.00 | 0.00 | 0.00 | 94 | 1012.7 |
| 20260506043006 | 59 | 337 | 9.0 | 14.0 | 0.00 | 0.00 | 0.00 | 95 | 1012.7 |
| 20260506042504 | 59 | 337 | 9.0 | 12.0 | 0.00 | 0.00 | 0.00 | 95 | 1012.4 |
| 20260506042007 | 59 | 337 | 9.0 | 13.0 | 0.00 | 0.00 | 0.00 | 94 | 1012.4 |
| 20260506041504 | 59 | 337 | 10.0 | 13.0 | 0.00 | 0.00 | 0.00 | 95 | 1012.4 |
| 20260506041006 | 59 | 360 | 11.0 | 17.0 | 0.00 | 0.00 | 0.00 | 95 | 1012.4 |
| 20260506040504 | 59 | 337 | 11.0 | 15.0 | 0.00 | 0.00 | 0.00 | 95 | 1012.1 |
| 20260506040005 | 59 | 337 | 10.0 | 16.0 | 0.00 | 0.00 | 0.00 | 95 | 1012.1 |
| 20260506035534 | 59 | 337 | 12.0 | 16.0 | 0.00 | 0.00 | 0.00 | 95 | 1011.7 |
| 20260506035005 | 59 | 337 | 9.0 | 12.0 | 0.00 | 0.00 | 0.00 | 95 | 1011.7 |
| 20260506034508 | 59 | 337 | 12.0 | 17.0 | 0.00 | 0.00 | 0.00 | 95 | 1011.7 |
| 20260506034004 | 60 | 337 | 12.0 | 17.0 | 0.00 | 0.00 | 0.00 | 95 | 1011.7 |
| 20260506033507 | 60 | 337 | 14.0 | 20.0 | 0.00 | 0.00 | 0.00 | 95 | 1011.4 |
| 20260506033005 | 60 | 22 | 9.0 | 14.0 | 0.00 | 0.00 | 0.00 | 95 | 1011.4 |
| 20260506032507 | 60 | 360 | 10.0 | 16.0 | 0.00 | 0.00 | 0.00 | 94 | 1011.0 |
| 20260506032004 | 60 | 337 | 12.0 | 16.0 | 0.00 | 0.00 | 0.00 | 94 | 1011.0 |
| 20260506031508 | 60 | 360 | 12.0 | 17.0 | 0.00 | 0.00 | 0.00 | 94 | 1011.0 |
| 20260506031004 | 61 | 337 | 10.0 | 15.0 | 0.00 | 0.00 | 0.00 | 93 | 1011.0 |
| 20260506030507 | 61 | 337 | 11.0 | 15.0 | 0.00 | 0.00 | 0.00 | 92 | 1011.0 |
| 20260506030004 | 61 | 337 | 13.0 | 18.0 | 0.00 | 0.00 | 0.00 | 93 | 1011.0 |
| 20260506025507 | 61 | 337 | 10.0 | 15.0 | 0.00 | 0.00 | 0.00 | 93 | 1010.7 |
| 20260506025009 | 61 | 337 | 9.0 | 14.0 | 0.00 | 0.00 | 0.00 | 93 | 1010.7 |
| 20260506024506 | 62 | 360 | 9.0 | 11.0 | 0.00 | 0.00 | 0.00 | 93 | 1010.4 |
| 20260506024003 | 62 | 360 | 9.0 | 14.0 | 0.00 | 0.00 | 0.00 | 92 | 1010.4 |
| 20260506023505 | 62 | 315 | 10.0 | 12.0 | 0.00 | 0.00 | 0.00 | 92 | 1010.4 |
| 20260506023003 | 62 | 337 | 11.0 | 13.0 | 0.00 | 0.00 | 0.00 | 92 | 1010.4 |
| 20260506022506 | 62 | 360 | 8.0 | 11.0 | 0.00 | 0.00 | 0.00 | 91 | 1009.7 |
| 20260506022002 | 62 | 22 | 12.0 | 17.0 | 0.00 | 0.00 | 0.00 | 91 | 1009.7 |
| 20260506021505 | 63 | 360 | 11.0 | 17.0 | 0.00 | 0.00 | 0.00 | 90 | 1009.4 |
| 20260506021002 | 63 | 337 | 13.0 | 16.0 | 0.00 | 0.00 | 0.00 | 90 | 1009.4 |
| 20260506020506 | 63 | 337 | 10.0 | 14.0 | 0.00 | 0.00 | 0.00 | 89 | 1008.7 |
| 20260506020003 | 64 | 360 | 11.0 | 14.0 | 0.00 | 0.00 | 0.00 | 90 | 1008.7 |
| 20260506015506 | 64 | 22 | 9.0 | 13.0 | 0.00 | 0.00 | 0.00 | 89 | 1008.7 |
| 20260506015035 | 65 | 337 | 10.0 | 13.0 | 0.00 | 0.00 | 0.00 | 88 | 1008.7 |
| 20260506014506 | 65 | 360 | 10.0 | 17.0 | 0.00 | 0.00 | 0.00 | 88 | 1008.3 |
| 20260506014002 | 65 | 337 | 6.0 | 8.0 | 0.00 | 0.00 | 0.00 | 87 | 1008.3 |
| 20260506013506 | 65 | 337 | 6.0 | 9.0 | 0.00 | 0.00 | 0.00 | 87 | 1008.0 |
| 20260506013002 | 65 | 337 | 8.0 | 11.0 | 0.00 | 0.00 | 0.00 | 86 | 1008.0 |